sat.trackr.live / text

‹ back to catalog

STARLINK-11454 [DTC]

NORAD 62059 · 2024-217C

PAYLOAD ACTIVE UNKNOWN

§ Identity

Operator
Country
US
Launch date
2024-11-24
Launch site
AFWTR
Launch vehicle
Mass (kg)
RCS (m²)

Purposes: comms

External: N2YO · Heavens-Above · Gunter

§ Orbital elements

Epoch: 2026-05-25T04:03:00.964224Z

Period
91.73 min
Inclination
53.1569°
Eccentricity
0.0001035
Mean motion
15.69784834 rev/d
Perigee alt
358.8 km
Apogee alt
360.2 km
Semi-major
6,737.6 km
B*
1.9495e-3
RAAN
54.3751°
Arg perigee
96.4297°
Mean anomaly
263.6839°
Rev number
8,718

§ Raw data

STARLINK-11454 [DTC]1 62059U 24217C   26145.16876116  .00243403  00000+0  19495-2 0  99972 62059  53.1569  54.3751 0001035  96.4297 263.6839 15.69784834 87180

JSON: /api/v1/satellites/62059 · /tle

For live sub-satellite position, see the globe view (requires WebGL).

§ Visibility from observer

Set your observer location to see the next 7 days of passes ≥ 10°. The values pass through the URL so the page stays shareable.

No JS? Fill the form by hand. The geolocation button needs JavaScript.